AAL996 KCLT-KDCA

Flight info

Callsign AAL996
Flight time 0h 49m
Altitude 39000
Route KILNS5 AUDII WAVES CAPSS4
Aircraft A319/M-SDE3FGHIRWY/LB1

Departure

Time 2026-05-05 19:38
Airport Charlotte Douglas International Airport (KCLT)

Arrival

Time 2026-05-05 20:28
Airport Ronald Reagan Washington National Airport (KDCA)
Time Latitude Longitude Altitude Speed Heading
2026-05-05 19:07 35.21857 -80.94184 732 ft 0 kts 253°
2026-05-05 19:29 35.21863 -80.94161 731 ft 4 kts 252°
2026-05-05 19:29 35.21871 -80.94130 732 ft 4 kts 256°
2026-05-05 19:30 35.21876 -80.94105 730 ft 4 kts 254°
2026-05-05 19:30 35.21885 -80.94080 732 ft 4 kts 195°
2026-05-05 19:30 35.21904 -80.94086 731 ft 4 kts 144°
2026-05-05 19:30 35.21918 -80.94099 732 ft 0 kts 145°
2026-05-05 19:32 35.21911 -80.94093 731 ft 3 kts 145°
2026-05-05 19:32 35.21880 -80.94066 731 ft 8 kts 145°
2026-05-05 19:33 35.21835 -80.94020 732 ft 0 kts 136°
2026-05-05 19:33 35.21824 -80.94007 732 ft 4 kts 134°
2026-05-05 19:33 35.21816 -80.93956 732 ft 8 kts 86°
2026-05-05 19:33 35.21851 -80.93880 732 ft 13 kts 48°
2026-05-05 19:34 35.21919 -80.93787 732 ft 17 kts 48°
2026-05-05 19:34 35.21991 -80.93711 733 ft 13 kts 12°
2026-05-05 19:34 35.22093 -80.93721 733 ft 17 kts 356°
2026-05-05 19:35 35.22360 -80.93745 733 ft 15 kts 356°
2026-05-05 19:35 35.22468 -80.93753 734 ft 11 kts 357°
2026-05-05 19:35 35.22501 -80.93730 734 ft 0 kts 62°
2026-05-05 19:37 35.22502 -80.93721 734 ft 3 kts 80°
2026-05-05 19:37 35.22506 -80.93677 735 ft 7 kts 86°
2026-05-05 19:37 35.22495 -80.93614 736 ft 8 kts 162°
2026-05-05 19:37 35.22403 -80.93613 736 ft 32 kts 178°
2026-05-05 19:38 35.21949 -80.93573 737 ft 96 kts 175°
2026-05-05 19:38 35.21087 -80.93502 737 ft 150 kts 176°
2026-05-05 19:38 35.19983 -80.93398 1138 ft 164 kts 179°
2026-05-05 19:38 35.18815 -80.93292 1760 ft 173 kts 178°
2026-05-05 19:39 35.17594 -80.93173 2447 ft 178 kts 177°
2026-05-05 19:39 35.16354 -80.93023 3038 ft 185 kts 178°
2026-05-05 19:39 35.14999 -80.92856 3355 ft 205 kts 176°
2026-05-05 19:39 35.13507 -80.92599 3690 ft 231 kts 165°
2026-05-05 19:40 35.12098 -80.91458 4274 ft 259 kts 134°
2026-05-05 19:40 35.11287 -80.89449 5206 ft 274 kts 105°
2026-05-05 19:40 35.11293 -80.87111 6174 ft 286 kts 80°
2026-05-05 19:40 35.12119 -80.84879 7087 ft 295 kts 57°
2026-05-05 19:41 35.13315 -80.82810 7751 ft 302 kts 56°
2026-05-05 19:41 35.14545 -80.80711 8619 ft 305 kts 56°
2026-05-05 19:41 35.15797 -80.78578 9501 ft 311 kts 55°
2026-05-05 19:41 35.17068 -80.76407 10253 ft 320 kts 55°
2026-05-05 19:42 35.18409 -80.74104 10560 ft 344 kts 55°
2026-05-05 19:42 35.19832 -80.71649 10945 ft 362 kts 55°
2026-05-05 19:42 35.21298 -80.69116 11617 ft 368 kts 55°
2026-05-05 19:42 35.24281 -80.63968 13136 ft 376 kts 55°
2026-05-05 19:43 35.30426 -80.53293 15878 ft 389 kts 54°
2026-05-05 19:43 35.35236 -80.41293 18500 ft 403 kts 69°
2026-05-05 19:43 35.39246 -80.28169 20756 ft 418 kts 69°
2026-05-05 19:43 35.43345 -80.14609 22908 ft 432 kts 69°
2026-05-05 19:44 35.47557 -80.00826 24710 ft 443 kts 67°
2026-05-05 19:44 35.51929 -79.86479 26296 ft 455 kts 66°
2026-05-05 19:44 35.53892 -79.80000 26979 ft 460 kts 66°
2026-05-05 19:44 35.55017 -79.76366 27387 ft 462 kts 65°
2026-05-05 19:45 35.56193 -79.72628 27789 ft 464 kts 65°
2026-05-05 19:45 35.57367 -79.68917 28179 ft 467 kts 65°
2026-05-05 19:45 35.58530 -79.65233 28554 ft 470 kts 65°
2026-05-05 19:45 35.59710 -79.61469 28928 ft 473 kts 64°
2026-05-05 19:46 35.60892 -79.57689 29295 ft 476 kts 64°
2026-05-05 19:46 35.62079 -79.53873 29624 ft 479 kts 64°
2026-05-05 19:46 35.63264 -79.50041 29981 ft 482 kts 64°
2026-05-05 19:46 35.64457 -79.46176 30292 ft 484 kts 64°
2026-05-05 19:47 35.65652 -79.42299 30584 ft 486 kts 64°
2026-05-05 19:47 35.66855 -79.38403 30925 ft 487 kts 64°
2026-05-05 19:47 35.68061 -79.34500 31247 ft 488 kts 63°
2026-05-05 19:47 35.69463 -79.30733 31550 ft 482 kts 54°
2026-05-05 19:48 35.71284 -79.27324 31959 ft 471 kts 44°
2026-05-05 19:48 35.73437 -79.24350 32421 ft 459 kts 35°
2026-05-05 19:48 35.75841 -79.21852 32909 ft 447 kts 27°
2026-05-05 19:48 35.78329 -79.19583 33426 ft 444 kts 27°
2026-05-05 19:49 35.80814 -79.17313 33897 ft 442 kts 27°
2026-05-05 19:49 35.82441 -79.15824 34208 ft 440 kts 26°
2026-05-05 19:49 35.85717 -79.12823 34791 ft 437 kts 26°
2026-05-05 19:49 35.87326 -79.11348 35046 ft 436 kts 27°
2026-05-05 19:50 35.89760 -79.09118 35402 ft 435 kts 27°
2026-05-05 19:50 35.92185 -79.06895 35740 ft 434 kts 27°
2026-05-05 19:50 35.94612 -79.04668 36086 ft 434 kts 27°
2026-05-05 19:50 35.97035 -79.02441 36422 ft 433 kts 27°
2026-05-05 19:51 35.99453 -79.00215 36740 ft 433 kts 27°
2026-05-05 19:51 36.01870 -78.97987 37062 ft 433 kts 27°
2026-05-05 19:51 36.04282 -78.95761 37356 ft 432 kts 27°
2026-05-05 19:51 36.06685 -78.93545 37640 ft 432 kts 28°
2026-05-05 19:52 36.09095 -78.91321 37941 ft 432 kts 28°
2026-05-05 19:52 36.11499 -78.89095 38246 ft 431 kts 28°
2026-05-05 19:52 36.13900 -78.86870 38537 ft 430 kts 28°
2026-05-05 19:52 36.16300 -78.84642 38798 ft 430 kts 28°
2026-05-05 19:53 36.18663 -78.82449 38980 ft 430 kts 28°
2026-05-05 19:53 36.23446 -78.77969 39061 ft 432 kts 29°
2026-05-05 19:54 36.28191 -78.73380 39043 ft 433 kts 29°
2026-05-05 19:54 36.32925 -78.68780 39042 ft 433 kts 29°
2026-05-05 19:55 36.37676 -78.64187 39043 ft 432 kts 30°
2026-05-05 19:55 36.42417 -78.59614 39048 ft 432 kts 30°
2026-05-05 19:56 36.47154 -78.55026 39064 ft 432 kts 30°
2026-05-05 19:56 36.51897 -78.50421 39051 ft 432 kts 30°
2026-05-05 19:57 36.56637 -78.45819 39034 ft 432 kts 30°
2026-05-05 19:57 36.61376 -78.41195 39030 ft 433 kts 30°
2026-05-05 19:58 36.66107 -78.36582 39031 ft 433 kts 30°
2026-05-05 19:58 36.68490 -78.34261 38930 ft 438 kts 30°
2026-05-05 19:58 36.70924 -78.31899 38703 ft 448 kts 30°
2026-05-05 19:58 36.73391 -78.29500 38431 ft 452 kts 30°
2026-05-05 19:59 36.75877 -78.27070 38150 ft 455 kts 30°
2026-05-05 19:59 36.78365 -78.24630 37906 ft 456 kts 30°
2026-05-05 19:59 36.80830 -78.22206 37634 ft 457 kts 30°
2026-05-05 19:59 36.83328 -78.19747 37369 ft 458 kts 30°
2026-05-05 20:00 36.85837 -78.17276 37090 ft 459 kts 30°
2026-05-05 20:00 36.88347 -78.14809 36842 ft 460 kts 29°
2026-05-05 20:00 36.90878 -78.12326 36545 ft 462 kts 29°
2026-05-05 20:00 36.93405 -78.09840 36289 ft 464 kts 29°
2026-05-05 20:01 36.95942 -78.07337 36033 ft 465 kts 29°
2026-05-05 20:01 36.98478 -78.04829 35777 ft 466 kts 29°
2026-05-05 20:01 37.01024 -78.02312 35535 ft 466 kts 29°
2026-05-05 20:01 37.03560 -77.99804 35237 ft 462 kts 29°
2026-05-05 20:02 37.06066 -77.97323 34709 ft 459 kts 28°
2026-05-05 20:02 37.08574 -77.94842 34058 ft 459 kts 28°
2026-05-05 20:02 37.11073 -77.92371 33444 ft 457 kts 29°
2026-05-05 20:02 37.13575 -77.89896 32426 ft 458 kts 30°
2026-05-05 20:03 37.16094 -77.87416 31437 ft 463 kts 31°
2026-05-05 20:03 37.18622 -77.84912 30830 ft 460 kts 33°
2026-05-05 20:03 37.21113 -77.82425 30270 ft 456 kts 33°
2026-05-05 20:03 37.23590 -77.79951 29668 ft 453 kts 34°
2026-05-05 20:04 37.26036 -77.77508 29108 ft 447 kts 34°
2026-05-05 20:04 37.28457 -77.75089 28543 ft 442 kts 34°
2026-05-05 20:04 37.30849 -77.72705 27997 ft 437 kts 34°
2026-05-05 20:04 37.33192 -77.70371 27460 ft 433 kts 35°
2026-05-05 20:05 37.35547 -77.68026 26932 ft 429 kts 35°
2026-05-05 20:05 37.37874 -77.65705 26409 ft 426 kts 35°
2026-05-05 20:05 37.40185 -77.63391 25901 ft 423 kts 36°
2026-05-05 20:05 37.42477 -77.61088 25408 ft 420 kts 36°
2026-05-05 20:06 37.44757 -77.58799 24920 ft 418 kts 36°
2026-05-05 20:06 37.47023 -77.56525 24452 ft 415 kts 36°
2026-05-05 20:06 37.49276 -77.54262 23981 ft 413 kts 36°
2026-05-05 20:06 37.51519 -77.52007 23512 ft 411 kts 36°
2026-05-05 20:07 37.53751 -77.49763 23017 ft 409 kts 36°
2026-05-05 20:07 37.55939 -77.47569 22533 ft 405 kts 36°
2026-05-05 20:07 37.58266 -77.45625 22076 ft 398 kts 25°
2026-05-05 20:07 37.60773 -77.44234 21663 ft 392 kts 15°
2026-05-05 20:08 37.63404 -77.43344 21286 ft 390 kts 10°
2026-05-05 20:08 37.66041 -77.42541 20894 ft 389 kts 10°
2026-05-05 20:08 37.68664 -77.41733 20519 ft 386 kts 10°
2026-05-05 20:08 37.71269 -77.40925 20138 ft 384 kts 10°
2026-05-05 20:09 37.73851 -77.40123 19759 ft 382 kts 10°
2026-05-05 20:09 37.76432 -77.39320 19384 ft 380 kts 10°
2026-05-05 20:09 37.78967 -77.38533 19019 ft 378 kts 10°
2026-05-05 20:09 37.81516 -77.37742 18647 ft 376 kts 10°
2026-05-05 20:10 37.84045 -77.36958 18275 ft 374 kts 10°
2026-05-05 20:10 37.86567 -77.36178 17869 ft 372 kts
2026-05-05 20:10 37.89078 -77.35404 17498 ft 370 kts
2026-05-05 20:10 37.91572 -77.34636 17142 ft 369 kts
2026-05-05 20:11 37.94061 -77.33873 16769 ft 367 kts
2026-05-05 20:11 37.96543 -77.33110 16421 ft 366 kts
2026-05-05 20:11 37.99010 -77.32350 16099 ft 365 kts
2026-05-05 20:11 38.01480 -77.31589 15781 ft 365 kts
2026-05-05 20:12 38.03942 -77.30829 15423 ft 363 kts
2026-05-05 20:12 38.06395 -77.30073 15055 ft 362 kts
2026-05-05 20:12 38.08834 -77.29320 14696 ft 361 kts
2026-05-05 20:12 38.11271 -77.28560 14341 ft 360 kts
2026-05-05 20:13 38.13668 -77.27807 13989 ft 359 kts
2026-05-05 20:13 38.16089 -77.27044 13622 ft 357 kts
2026-05-05 20:13 38.18500 -77.26284 13250 ft 356 kts
2026-05-05 20:13 38.20904 -77.25517 12914 ft 356 kts 10°
2026-05-05 20:14 38.23290 -77.24674 12647 ft 357 kts 11°
2026-05-05 20:14 38.25673 -77.23768 12371 ft 356 kts 12°
2026-05-05 20:14 38.28037 -77.22841 12076 ft 356 kts 12°
2026-05-05 20:14 38.30403 -77.21908 11805 ft 355 kts 12°
2026-05-05 20:15 38.32767 -77.20985 11529 ft 355 kts 12°
2026-05-05 20:15 38.35130 -77.20075 11246 ft 354 kts 12°
2026-05-05 20:15 38.37465 -77.19188 10974 ft 354 kts 12°
2026-05-05 20:15 38.39825 -77.18288 10885 ft 354 kts 12°
2026-05-05 20:16 38.42190 -77.17383 10785 ft 355 kts 12°
2026-05-05 20:16 38.44545 -77.16479 10662 ft 353 kts 12°
2026-05-05 20:16 38.46898 -77.15570 10548 ft 353 kts 12°
2026-05-05 20:16 38.49244 -77.14659 10435 ft 352 kts 12°
2026-05-05 20:17 38.51590 -77.13745 10319 ft 352 kts 12°
2026-05-05 20:17 38.53902 -77.12844 10198 ft 342 kts 12°
2026-05-05 20:17 38.56140 -77.11969 10074 ft 330 kts 11°
2026-05-05 20:17 38.58319 -77.11123 9863 ft 324 kts 11°
2026-05-05 20:18 38.60482 -77.10290 9568 ft 322 kts 11°
2026-05-05 20:18 38.62617 -77.09472 9247 ft 320 kts 11°
2026-05-05 20:18 38.64753 -77.08657 8933 ft 319 kts 11°
2026-05-05 20:18 38.66875 -77.07840 8611 ft 316 kts 12°
2026-05-05 20:19 38.68958 -77.07136 8244 ft 310 kts
2026-05-05 20:19 38.71090 -77.06873 7931 ft 306 kts 359°
2026-05-05 20:19 38.73205 -77.06663 7619 ft 305 kts 359°
2026-05-05 20:19 38.75315 -77.06615 7310 ft 300 kts 348°
2026-05-05 20:20 38.77320 -77.07203 7024 ft 292 kts 333°
2026-05-05 20:20 38.79097 -77.08375 6732 ft 284 kts 320°
2026-05-05 20:20 38.80756 -77.09756 6441 ft 285 kts 321°
2026-05-05 20:20 38.82423 -77.11132 6142 ft 285 kts 321°
2026-05-05 20:21 38.83957 -77.12692 5831 ft 279 kts 309°
2026-05-05 20:21 38.85350 -77.14419 5528 ft 277 kts 309°
2026-05-05 20:21 38.86733 -77.16139 5222 ft 275 kts 309°
2026-05-05 20:21 38.88099 -77.17841 4944 ft 273 kts 309°
2026-05-05 20:22 38.89461 -77.19537 4659 ft 271 kts 309°
2026-05-05 20:22 38.90804 -77.21209 4367 ft 268 kts 310°
2026-05-05 20:22 38.92133 -77.22866 4087 ft 265 kts 310°
2026-05-05 20:22 38.93435 -77.24490 3799 ft 264 kts 310°
2026-05-05 20:23 38.94900 -77.25935 3503 ft 272 kts 331°
2026-05-05 20:23 38.96768 -77.26416 3206 ft 280 kts
2026-05-05 20:23 38.98623 -77.25718 3010 ft 276 kts 30°
2026-05-05 20:23 38.99951 -77.24072 2997 ft 261 kts 63°
2026-05-05 20:24 39.00451 -77.21922 3017 ft 247 kts 97°
2026-05-05 20:24 39.00068 -77.19848 3028 ft 234 kts 123°
2026-05-05 20:24 38.99362 -77.18048 3025 ft 219 kts 128°
2026-05-05 20:24 38.98565 -77.16414 2981 ft 214 kts 134°
2026-05-05 20:25 38.97602 -77.14990 2635 ft 210 kts 147°
2026-05-05 20:25 38.96409 -77.13921 2260 ft 209 kts 158°
2026-05-05 20:25 38.95118 -77.13040 1861 ft 212 kts 159°
2026-05-05 20:25 38.93807 -77.12172 1626 ft 209 kts 157°
2026-05-05 20:26 38.92601 -77.11247 1546 ft 200 kts 152°
2026-05-05 20:26 38.91538 -77.10166 1384 ft 190 kts 137°
2026-05-05 20:26 38.90877 -77.08676 1335 ft 198 kts 118°
2026-05-05 20:26 38.90401 -77.07068 1139 ft 187 kts 125°
2026-05-05 20:27 38.89696 -77.05804 987 ft 165 kts 140°
2026-05-05 20:27 38.88897 -77.04875 795 ft 147 kts 152°
2026-05-05 20:27 38.88037 -77.04236 475 ft 138 kts 162°
2026-05-05 20:27 38.87143 -77.03971 260 ft 129 kts 179°
2026-05-05 20:28 38.86264 -77.03886 87 ft 123 kts 179°
2026-05-05 20:28 38.85460 -77.03811 27 ft 93 kts 175°
2026-05-05 20:28 38.85017 -77.03765 23 ft 38 kts 175°
2026-05-05 20:28 38.84898 -77.03783 24 ft 16 kts 214°
2026-05-05 20:29 38.84879 -77.03860 21 ft 2 kts 269°
2026-05-05 20:29 38.84878 -77.03866 21 ft 0 kts 269°
2026-05-05 20:30 38.84878 -77.03872 21 ft 2 kts 269°
2026-05-05 20:30 38.84878 -77.03903 21 ft 5 kts 269°
2026-05-05 20:30 38.84899 -77.03947 21 ft 8 kts 333°
2026-05-05 20:30 38.84966 -77.03957 21 ft 12 kts 355°
2026-05-05 20:31 38.85059 -77.03965 21 ft 15 kts 355°
2026-05-05 20:31 38.85173 -77.03978 22 ft 18 kts 355°
2026-05-05 20:31 38.85300 -77.03991 23 ft 19 kts 356°
2026-05-05 20:31 38.85430 -77.04004 25 ft 19 kts 354°
2026-05-05 20:32 38.85481 -77.04010 27 ft 0 kts 352°
2026-05-05 20:35 38.85485 -77.04011 26 ft 2 kts 352°
2026-05-05 20:36 38.85497 -77.04013 26 ft 4 kts 351°
2026-05-05 20:36 38.85527 -77.04025 27 ft 5 kts 334°
2026-05-05 20:36 38.85543 -77.04061 29 ft 5 kts 278°
2026-05-05 20:36 38.85534 -77.04109 26 ft 6 kts 252°
2026-05-05 20:37 38.85510 -77.04152 27 ft 6 kts 199°
2026-05-05 20:37 38.85476 -77.04147 27 ft 4 kts 169°
2026-05-05 20:37 38.85474 -77.04146 27 ft 0 kts 169°